TimePDT,TemperatureF,Dew PointF,Humidity,Sea Level PressureIn,VisibilityMPH,Wind Direction,Wind SpeedMPH,Gust SpeedMPH,PrecipitationIn,Events,Conditions,WindDirDegrees,DateUTC
12:53 AM,37.9,26.1,62,30.11,10.0,Calm,Calm,-,N/A,,Clear,0,2013-06-14 07:53:00
1:53 AM,37.0,25.0,62,30.09,10.0,South,4.6,-,N/A,,Clear,190,2013-06-14 08:53:00
2:53 AM,37.0,24.1,59,30.08,10.0,Calm,Calm,-,N/A,,Clear,0,2013-06-14 09:53:00
3:53 AM,35.1,25.0,67,30.09,10.0,SSW,3.5,-,N/A,,Clear,210,2013-06-14 10:53:00
4:53 AM,33.1,24.1,70,30.10,10.0,Variable,4.6,-,N/A,,Clear,0,2013-06-14 11:53:00
5:53 AM,34.0,24.1,67,30.10,10.0,South,5.8,-,N/A,,Clear,190,2013-06-14 12:53:00
6:53 AM,37.0,26.1,65,30.09,10.0,SSW,4.6,-,N/A,,Clear,210,2013-06-14 13:53:00
7:53 AM,48.9,28.9,46,30.07,10.0,Calm,Calm,-,N/A,,Clear,0,2013-06-14 14:53:00
8:53 AM,54.0,25.0,33,30.07,10.0,Calm,Calm,-,N/A,,Clear,0,2013-06-14 15:53:00
9:53 AM,60.1,27.0,28,30.05,10.0,Variable,4.6,-,N/A,,Clear,0,2013-06-14 16:53:00
10:53 AM,60.1,26.1,27,30.04,10.0,Variable,4.6,-,N/A,,Clear,0,2013-06-14 17:53:00
11:53 AM,62.1,26.1,25,30.04,10.0,Calm,Calm,-,N/A,,Clear,0,2013-06-14 18:53:00
12:53 PM,64.9,27.0,24,30.03,10.0,Variable,3.5,-,N/A,,Clear,0,2013-06-14 19:53:00
1:53 PM,64.0,28.9,27,30.02,10.0,Variable,5.8,-,N/A,,Clear,0,2013-06-14 20:53:00
2:53 PM,66.0,27.0,23,30.01,10.0,NNE,6.9,-,N/A,,Clear,20,2013-06-14 21:53:00
3:53 PM,69.1,28.0,22,29.99,10.0,NNE,8.1,-,N/A,,Clear,30,2013-06-14 22:53:00
4:53 PM,66.9,27.0,22,29.98,10.0,NNE,6.9,-,N/A,,Clear,30,2013-06-14 23:53:00
5:53 PM,68.0,28.0,22,29.96,10.0,North,3.5,-,N/A,,Clear,10,2013-06-15 00:53:00
6:53 PM,64.0,35.1,34,29.97,10.0,Calm,Calm,-,N/A,,Clear,0,2013-06-15 01:53:00
7:53 PM,60.1,36.0,41,29.95,10.0,Calm,Calm,-,N/A,,Clear,0,2013-06-15 02:53:00
8:53 PM,54.0,35.1,49,29.96,10.0,Calm,Calm,-,N/A,,Clear,0,2013-06-15 03:53:00
9:53 PM,51.1,33.1,50,29.96,10.0,Calm,Calm,-,N/A,,Clear,0,2013-06-15 04:53:00
10:53 PM,48.0,35.1,61,29.98,10.0,Calm,Calm,-,N/A,,Clear,0,2013-06-15 05:53:00
11:53 PM,46.0,35.1,66,29.97,10.0,Calm,Calm,-,N/A,,Clear,0,2013-06-15 06:53:00